Weather History for Sedalia, MO

Change the Weather History Date:

Wednesday, January 11, 2012

  Actual Average Record
Temperature  
Mean Temperature 42 °F 31 °F  
Max Temperature 59 °F 40 °F 65 °F (2013)
Min Temperature 24 °F 23 °F -22 °F (1977)
Degree Days  
Heating Degree Days 23 34  
Month to date heating degree days 267 372  
Since 1 July heating degree days 1764 2153  
Cooling Degree Days 0 0  
Month to date cooling degree days 0 0  
Year to date cooling degree days 0 0  
Moisture  
Dew Point 26 °F    
Average Humidity 59    
Maximum Humidity 85    
Minimum Humidity 32    
Precipitation  
Precipitation T in 0.05 in 0.77 in (1949)
Month to date precipitation 0.03 0.54  
Year to date precipitation 0.03 0.54  
Sea Level Pressure  
Sea Level Pressure 29.75 in    
Wind  
Wind Speed 10 mph (NW)    
Max Wind Speed 35 mph    
Max Gust Speed 43 mph    
Visibility 8 miles    
Events Rain , Snow    
T = Trace of Precipitation, MM = Missing Value Source: NWS Daily Summary

Daily Weather History Graph

Daily Weather History Graph

Search for Another Location

Airport:

Trip Planner

Search our weather history database for the weather conditions in past years. The results will help you decide how hot, cold, wet, or windy it might be!

Date:

Astronomy

Jan. 11, 2012 Rise Set
Actual Time 7:30 AM CST 5:10 PM CST
Civil Twilight 7:01 AM CST 5:40 PM CST
Nautical Twilight 6:28 AM CST 6:13 PM CST
Astronomical Twilight 5:56 AM CST 6:45 PM CST
Moon 8:07 PM CST (1/11) 8:44 AM CST (1/11)
Length of Visible Light 10h 38m
Length of Day
9h 40m
Waning Gibbous, 93% of the Moon is Illuminated
Jan 11
Waning Gibbous
Jan 16
Last Quarter
Jan 23
New
Jan 30
First Quarter
Feb 7
Full

Hourly Weather History & Observations

Time (CST) Temp. Windchill Dew Point Humidity Pressure Visibility Wind Dir Wind Speed Gust Speed Precip Events Conditions
12:53 AM 43.0 °F - 26.1 °F 51% 29.71 in 10.0 mi Calm Calm - N/A   Mostly Cloudy
1:53 AM 36.0 °F 30.3 °F 27.0 °F 70% 29.70 in 10.0 mi NW 6.9 mph - N/A   Clear
2:53 AM 33.1 °F 30.0 °F 25.0 °F 72% 29.71 in 10.0 mi North 3.5 mph - N/A   Clear
3:53 AM 36.0 °F - 25.0 °F 64% 29.69 in 10.0 mi Calm Calm - N/A   Clear
5:53 AM 32.0 °F 27.5 °F 24.1 °F 73% 29.68 in 10.0 mi WNW 4.6 mph - N/A   Clear
6:53 AM 30.9 °F 24.3 °F 24.1 °F 76% 29.66 in 9.0 mi WNW 6.9 mph - N/A   Clear
7:53 AM 34.0 °F - 24.1 °F 67% 29.67 in 10.0 mi Calm Calm - N/A   Clear
8:53 AM 35.1 °F - 28.9 °F 78% 29.68 in 9.0 mi Calm Calm - N/A   Clear
9:53 AM 46.0 °F - 30.0 °F 54% 29.69 in 10.0 mi Calm Calm - N/A   Clear
10:53 AM 50.0 °F - 30.0 °F 46% 29.68 in 10.0 mi Calm Calm - N/A   Clear
11:53 AM 53.1 °F - 28.0 °F 38% 29.64 in 10.0 mi Variable 4.6 mph - N/A   Clear
12:53 PM 55.9 °F - 27.0 °F 33% 29.61 in 10.0 mi Variable 3.5 mph - N/A   Clear
1:53 PM 57.0 °F - 28.0 °F 33% 29.60 in 10.0 mi WSW 8.1 mph - N/A   Clear
3:53 PM 53.1 °F - 33.1 °F 47% 29.62 in 10.0 mi NW 20.7 mph 26.5 mph N/A   Clear
5:53 PM 42.1 °F 33.1 °F 33.1 °F 70% 29.70 in 10.0 mi NW 20.7 mph 35.7 mph N/A   Clear
6:15 PM 42.8 °F 33.8 °F 33.8 °F 70% 29.70 in 10.0 mi NNW 21.9 mph 34.5 mph N/A   Mostly Cloudy
6:53 PM 39.9 °F 30.0 °F 33.1 °F 77% 29.74 in 10.0 mi NNW 21.9 mph 28.8 mph N/A   Overcast
7:53 PM 36.0 °F 23.2 °F 27.0 °F 70% 29.79 in 10.0 mi NNW 28.8 mph 38.0 mph N/A   Overcast
8:53 PM 32.0 °F 19.2 °F 24.1 °F 73% 29.83 in 10.0 mi NW 23.0 mph 33.4 mph N/A   Overcast
9:53 PM 30.9 °F 16.7 °F 21.9 °F 69% 29.84 in 10.0 mi NNW 27.6 mph 39.1 mph N/A   Overcast
10:49 PM 28.4 °F 15.8 °F 24.8 °F 86% 29.84 in 5.0 mi NW 18.4 mph 26.5 mph 0.00 in Rain Light Freezing Rain
10:53 PM 28.9 °F 15.1 °F 25.0 °F 85% 29.86 in 4.0 mi NW 23.0 mph 29.9 mph 0.00 in Rain Light Freezing Rain
11:03 PM 28.4 °F 15.8 °F 24.8 °F 86% 29.84 in 4.0 mi NW 18.4 mph 27.6 mph 0.00 in Rain Light Freezing Rain
11:15 PM 28.4 °F 14.7 °F 24.8 °F 86% 29.85 in 5.0 mi NW 21.9 mph 29.9 mph 0.00 in Rain Light Freezing Rain
11:25 PM 26.6 °F 12.4 °F 23.0 °F 86% 29.85 in 3.0 mi NW 21.9 mph 29.9 mph 0.00 in Snow Light Snow
11:27 PM 26.6 °F 13.1 °F 23.0 °F 86% 29.85 in 2.5 mi NW 19.6 mph 29.9 mph 0.00 in Snow Light Snow
11:35 PM 26.6 °F 12.7 °F 23.0 °F 86% 29.85 in 1.2 mi NW 20.7 mph 24.2 mph 0.00 in Snow Light Snow
11:45 PM 24.8 °F 9.6 °F 21.2 °F 86% 29.86 in 1.0 mi NW 23.0 mph 31.1 mph 0.00 in Snow Light Snow
11:53 PM 24.1 °F 8.7 °F 21.0 °F 88% 29.88 in 0.8 mi NNW 23.0 mph 35.7 mph 0.00 in Snow Light Snow